KD9BEW Weather Reports


Display with metric or nautical units.
time (UTC)temp
F
wind
direction
speed
MPH
gust
MPH
rain 1hr
in
rain 24hr
in
rain mn
in
humidity
%
barometer
mb
20260905134603 66 0 0.0 3.0 0.00 0.07 0.06 94 1018.4
20260905133105 66 0 0.0 0.0 0.00 0.07 0.06 94 1018.6
20260905131605 65 0 0.0 0.0 0.00 0.07 0.06 94 1018.8
20260905124604 65 0 0.0 0.0 0.01 0.07 0.06 94 1018.6
20260905123110 65 0 0.0 0.0 0.02 0.07 0.06 94 1018.5
20260905121605 64 0 0.0 0.0 0.02 0.07 0.06 94 1018.0
20260905120107 64 0 0.0 0.0 0.01 0.06 0.05 94 1017.9
20260905114601 64 0 0.0 0.0 0.02 0.06 0.05 94 1017.6
20260905113100 64 0 0.0 0.0 0.01 0.05 0.04 94 1017.3
20260905111644 64 0 0.0 0.0 0.01 0.05 0.04 94 1017.1
20260905104558 64 0 0.0 0.0 0.00 0.04 0.03 94 1017.0
20260905103104 64 0 0.0 0.0 0.00 0.04 0.03 94 1016.9
20260905101603 64 0 0.0 0.0 0.00 0.04 0.03 93 1017.2
20260905100107 64 0 0.0 0.0 0.01 0.04 0.03 93 1017.3
20260905094603 64 0 0.0 0.0 0.01 0.04 0.03 93 1017.3
20260905093103 64 0 0.0 0.0 0.01 0.04 0.03 93 1017.3
20260905091604 64 0 0.0 0.0 0.01 0.04 0.03 93 1017.4
20260905090059 64 0 0.0 0.0 0.00 0.03 0.02 93 1017.6
20260905084603 64 0 0.0 0.0 0.00 0.14 0.02 93 1017.7
20260905083104 64 0 0.0 0.0 0.00 0.14 0.02 93 1017.7
20260905081606 64 0 0.0 0.0 0.01 0.14 0.02 93 1017.6
20260905074605 64 0 0.0 0.0 0.01 0.14 0.02 93 1017.4
20260905073104 64 0 0.0 0.0 0.01 0.14 0.02 93 1017.4
20260905071603 64 0 0.0 0.0 0.00 0.13 0.01 93 1017.3
20260905063104 63 0 0.0 0.0 0.00 0.13 0.01 93 1017.2
20260905061612 63 0 0.0 1.0 0.01 0.13 0.01 93 1017.2
20260905060100 64 0 0.0 0.0 0.01 0.13 0.01 93 1017.1
20260905054607 64 0 0.0 1.0 0.01 0.13 0.01 93 1017.0
20260905053104 64 0 0.0 0.0 0.01 0.13 0.01 93 1017.0
20260905051601 64 0 0.0 1.0 0.00 0.12 0.00 93 1017.1
20260905050104 64 0 0.0 0.0 0.00 0.12 0.00 93 1017.0
20260905044607 64 0 0.0 0.0 0.00 0.12 0.12 93 1017.1
20260905043102 64 0 0.0 0.0 0.00 0.12 0.12 93 1017.0
20260905041602 64 0 0.0 1.0 0.00 0.12 0.12 93 1017.0
20260905034607 64 0 0.0 1.0 0.01 0.12 0.12 92 1017.1
20260905033105 64 0 0.0 1.0 0.01 0.12 0.12 92 1017.1
20260905031602 64 0 0.0 1.0 0.01 0.12 0.12 92 1017.3
20260905030123 64 0 0.0 1.0 0.01 0.12 0.12 92 1017.2
20260905024604 65 0 0.0 1.0 0.00 0.11 0.11 92 1017.0
20260905023103 65 0 0.0 1.0 0.00 0.11 0.11 92 1017.0
20260905021604 65 0 0.0 1.0 0.00 0.11 0.11 92 1017.0
20260905020108 65 0 0.0 1.0 0.00 0.11 0.11 91 1016.9
20260905014605 65 0 0.0 2.0 0.00 0.11 0.11 91 1017.0
20260905013103 65 0 0.0 1.0 0.00 0.11 0.11 91 1016.8
20260905011605 65 0 0.0 1.0 0.00 0.11 0.11 90 1016.6
20260905010114 65 0 0.0 0.0 0.00 0.11 0.11 90 1016.3
20260905004615 66 0 0.0 0.0 0.00 0.11 0.11 90 1016.2
20260905003105 66 0 0.0 0.0 0.00 0.11 0.11 89 1016.1
20260905001601 66 35 0.0 1.0 0.00 0.11 0.11 89 1016.0
20260904234606 67 0 0.0 3.0 0.00 0.11 0.11 88 1016.0
20260904233107 67 0 0.0 6.0 0.00 0.11 0.11 88 1016.0
20260904231603 67 44 1.0 5.0 0.00 0.11 0.11 87 1015.8
20260904224607 67 42 1.0 3.0 0.00 0.11 0.11 88 1015.7
20260904223107 67 46 0.0 5.0 0.00 0.11 0.11 88 1015.4
20260904221613 67 0 0.0 3.0 0.00 0.11 0.11 88 1015.4
20260904220107 67 46 1.0 3.0 0.00 0.11 0.11 89 1015.3
20260904214624 67 67 1.0 4.0 0.00 0.11 0.11 89 1015.3
20260904213107 67 16 2.0 5.0 0.00 0.11 0.11 89 1015.2
20260904211625 68 32 1.0 7.0 0.00 0.11 0.11 89 1015.1
20260904204602 70 49 1.0 6.0 0.00 0.11 0.11 88 1014.9
20260904203119 71 58 1.0 3.0 0.00 0.11 0.11 88 1014.7
20260904201606 71 40 0.0 1.0 0.00 0.11 0.11 88 1014.6
20260904200117 71 0 0.0 1.0 0.00 0.11 0.11 88 1014.7
20260904194603 71 0 0.0 3.0 0.00 0.11 0.11 88 1014.7
20260904193107 71 36 1.0 3.0 0.00 0.11 0.11 88 1014.4
20260904191602 70 0 0.0 3.0 0.00 0.11 0.11 89 1014.4
20260904184603 70 57 0.0 2.0 0.00 0.11 0.11 89 1014.2
20260904183107 71 75 0.0 5.0 0.00 0.11 0.11 89 1014.1
20260904181603 71 30 0.0 4.0 0.00 0.11 0.11 89 1014.1
20260904180124 71 0 0.0 1.0 0.00 0.11 0.11 89 1014.1
20260904174610 71 0 0.0 4.0 0.00 0.11 0.11 89 1014.1
20260904173106 72 311 0.0 1.0 0.00 0.11 0.11 88 1014.0
20260904171607 72 0 0.0 1.0 0.00 0.11 0.11 89 1013.9
20260904170107 71 0 0.0 1.0 0.00 0.11 0.11 89 1014.0
20260904164620 71 0 0.0 1.0 0.00 0.11 0.11 89 1013.9
20260904163100 70 345 1.0 3.0 0.00 0.11 0.11 90 1013.9
20260904161610 69 0 0.0 0.0 0.00 0.11 0.11 91 1013.9
20260904154605 68 0 0.0 0.0 0.00 0.11 0.11 92 1013.9
20260904153140 68 0 0.0 0.0 0.00 0.11 0.11 93 1013.7
20260904151600 67 0 0.0 0.0 0.00 0.11 0.11 93 1013.7
20260904150100 66 0 0.0 0.0 0.00 0.11 0.11 93 1013.7
20260904144603 66 0 0.0 0.0 0.00 0.11 0.11 93 1013.6
20260904143102 65 0 0.0 0.0 0.00 0.11 0.11 93 1013.4
20260904141602 65 0 0.0 0.0 0.00 0.11 0.11 93 1013.3